Theta_e
320 321 320 319 318 319 317 316 315 316 316 318 316 315 317 316 315 315 313 311 310 311 313 313 313 313 301 292 290 295 306 303 299 298 295 293 290 291 287 288 290 286 287 289 290 290 290
318 319 320 320 319 319 318 315 315 315 316 317 316 315 314 316 314 314 313 312 310 310 313 313 312 312 295 286 292 295 296 297 296 296 294 294 291 291 289 287 287 286 288 288 289 289 289
318 318 319 319 319 320 318 317 316 316 316 317 316 314 313 313 314 314 313 312 312 309 312 313 312 306 292 289 293 294 295 295 295 295 292 293 293 292 289 287 288 288 285 285 286 288 287
316 317 318 319 318 318 319 319 318 317 317 316 316 314 314 314 313 313 312 312 312 310 311 312 311 299 286 295 293 294 295 296 296 296 294 294 295 292 290 288 288 284 283 279 284 287 287
315 315 316 317 318 317 317 318 318 317 316 316 315 313 313 313 313 313 313 313 309 311 312 311 300 292 286 298 291 292 293 293 295 295 294 298 293 288 287 283 280 281 275 280 282 287 285
316 315 316 316 316 317 317 316 317 317 316 315 314 312 312 313 313 312 313 311 309 308 306 306 301 285 288 286 290 291 292 294 293 293 293 293 289 281 281 280 277 278 278 282 281 284 283
316 316 315 316 316 316 316 316 315 317 317 317 315 314 312 313 313 313 307 299 290 288 292 285 285 285 288 290 292 290 292 291 292 290 283 288 281 279 283 284 285 283 282 282 282 284 282
316 316 316 315 316 316 316 315 316 316 317 316 314 313 311 311 312 313 302 295 291 291 283 290 289 288 290 290 286 288 292 286 286 282 285 282 279 284 286 288 286 284 282 280 280 284 281
318 317 317 315 316 316 317 317 316 315 315 316 314 313 311 311 313 306 298 299 299 293 284 287 289 288 287 289 285 286 289 287 284 283 282 280 282 287 288 284 283 283 281 280 280 281 281
319 318 317 316 316 316 316 316 316 315 315 315 314 313 312 312 304 299 296 303 303 293 278 282 284 287 288 289 284 289 289 287 284 283 284 281 284 285 283 283 283 280 284 284 282 279 276
317 318 317 316 316 315 315 316 316 315 314 315 314 313 312 311 297 296 299 303 297 290 270 283 284 290 288 284 284 285 289 287 283 284 283 280 281 281 282 283 285 281 284 283 282 279 277
308 310 312 315 316 315 315 315 316 315 314 314 313 312 312 306 300 300 301 297 290 278 268 279 283 282 282 283 283 284 285 288 288 283 282 279 283 282 281 282 283 286 283 281 278 276 271
307 307 308 310 316 315 315 314 315 314 314 313 313 312 309 305 296 298 294 289 275 271 282 278 278 281 280 279 280 281 280 279 278 276 277 278 279 281 283 281 283 279 279 271 271 268 274
304 305 306 307 309 309 314 314 314 314 313 313 312 311 309 303 301 295 290 281 270 278 279 282 280 280 278 279 278 279 278 275 280 278 275 276 274 279 282 281 281 276 278 275 269 268 272
302 303 303 305 307 308 310 314 314 313 313 312 311 306 304 303 298 296 284 273 276 279 283 279 280 276 276 279 277 277 276 274 279 280 277 275 276 279 281 280 281 278 275 280 272 267 270
300 301 302 303 304 306 306 308 313 313 312 311 304 301 300 305 298 294 282 278 278 285 283 281 277 277 274 276 276 275 275 278 279 282 280 279 272 277 278 280 280 279 279 277 274 269 269
299 301 301 302 302 304 304 305 307 312 312 311 301 294 301 302 298 289 280 277 281 286 285 281 280 277 277 276 278 276 277 279 282 281 287 279 274 272 276 274 274 276 275 272 276 274 271
299 299 300 301 302 303 304 304 304 312 311 307 297 287 300 300 286 286 282 279 288 285 286 285 284 283 278 279 277 277 277 279 284 285 280 281 273 269 271 272 274 274 277 278 276 269 268
299 299 300 300 300 301 303 304 303 305 310 302 292 290 298 297 281 282 283 284 284 284 284 284 283 286 283 278 275 278 279 283 285 284 282 281 272 267 270 272 272 269 272 274 272 274 272
299 299 299 299 299 300 301 303 304 303 304 302 289 282 286 288 291 285 282 279 281 285 285 286 285 284 281 279 280 276 278 281 283 284 290 286 274 274 274 273 273 271 273 277 280 276 274
299 299 298 298 298 299 300 301 303 303 302 301 289 284 285 280 285 285 284 281 279 279 285 286 283 283 281 276 279 278 278 277 281 285 281 281 276 275 275 276 276 273 274 277 277 280 277
299 299 298 298 298 299 299 300 302 304 303 298 285 284 284 282 288 286 285 281 280 281 282 281 281 283 284 279 282 278 277 276 279 278 275 273 273 273 272 275 276 275 275 276 279 280 273
298 298 298 298 298 298 299 299 300 302 302 294 295 292 290 286 285 284 282 283 281 283 285 287 286 284 282 286 289 288 289 285 282 279 277 275 274 271 270 270 274 274 275 274 273 273 280
298 298 298 298 298 298 298 299 299 301 302 294 294 288 285 280 284 284 285 285 282 284 283 286 288 285 288 293 291 289 287 284 283 281 282 272 271 271 268 270 266 276 273 278 278 277 279
297 298 298 298 298 298 298 299 299 301 301 299 297 293 286 281 284 284 285 286 285 286 285 285 288 290 293 288 282 280 280 281 280 281 279 278 278 274 271 265 271 275 274 274 274 276 280
298 299 298 298 298 298 298 298 299 300 302 298 295 298 288 285 282 287 285 286 283 283 283 286 290 294 290 284 281 275 273 275 274 276 281 280 280 278 272 271 266 272 275 274 278 276 277
297 298 298 298 297 298 298 298 299 300 301 296 294 297 290 285 286 288 284 284 287 285 282 284 286 286 288 280 276 274 275 278 273 272 275 274 275 275 276 273 271 275 274 277 272 274 273
298 298 298 297 297 297 298 298 299 299 300 299 291 298 292 285 284 287 290 287 287 287 282 284 284 283 283 279 277 275 272 275 276 277 276 277 276 275 276 274 272 270 277 278 271 275 276
298 298 297 298 295 297 298 297 298 299 301 295 287 294 292 285 277 281 280 280 282 291 288 286 284 284 284 280 278 276 271 269 272 273 276 276 279 277 279 277 265 266 264 265 270 271 270
Wind_Speed
5 7 10 9 9 10 9 7 6 6 5 7 6 2 5 5 4 4 2 1 4 5 7 9 10 11 5 2 4 3 9 7 3 2 1 1 3 4 6 5 3 5 3 3 3 5 5
6 6 10 10 10 11 10 9 7 8 9 9 8 7 3 4 5 4 3 2 3 4 7 8 9 11 2 2 2 4 5 3 3 3 2 4 2 2 7 4 3 3 5 4 3 2 3
10 10 8 9 9 12 12 11 9 9 11 12 10 9 8 5 5 6 4 5 4 3 5 8 8 3 2 5 1 5 4 0 2 1 2 1 1 4 4 6 5 5 5 4 2 0 1
12 12 13 12 11 9 10 11 10 10 11 11 11 10 9 9 8 3 6 6 4 1 6 7 7 2 6 1 2 2 5 2 2 2 2 1 3 8 4 5 6 4 5 3 2 4 1
14 14 14 14 14 14 12 11 12 12 12 13 12 9 9 10 8 3 4 5 1 6 8 6 2 1 6 1 1 3 2 2 1 2 2 1 6 5 4 6 6 6 3 4 3 7 3
16 15 14 15 15 15 15 14 13 15 15 13 12 11 9 9 9 7 5 4 3 5 4 4 3 2 2 2 1 2 2 1 3 3 4 6 7 5 5 5 7 8 4 4 5 7 4
18 17 17 16 16 16 16 15 15 14 18 15 13 11 10 8 8 9 9 4 4 2 1 6 3 1 2 1 1 2 2 1 2 5 5 3 6 8 14 6 1 6 4 5 1 2 4
19 19 18 17 17 18 17 17 16 15 14 16 14 10 12 10 8 10 6 4 4 4 4 5 2 1 2 3 3 0 1 4 3 5 6 7 6 6 3 4 1 4 4 2 2 2 2
22 21 20 20 18 18 18 17 16 16 12 17 16 14 11 11 9 5 5 6 2 2 2 4 5 4 4 6 4 7 6 4 3 5 6 8 2 3 6 5 4 1 5 5 2 2 1
24 22 22 21 20 18 18 19 18 17 15 16 17 15 14 9 3 3 3 7 4 3 5 5 6 6 4 6 2 1 1 4 3 9 7 2 1 5 4 4 7 4 4 6 7 5 4
21 23 24 23 21 21 20 18 19 20 17 17 20 18 16 14 4 6 6 6 4 4 1 4 3 0 4 5 6 2 1 2 8 7 7 6 4 3 3 3 3 4 3 6 4 4 4
19 23 18 17 24 23 22 21 19 21 18 17 20 19 18 8 2 5 5 8 4 5 11 6 5 4 5 1 2 3 3 1 4 5 5 3 2 2 3 3 3 7 8 9 5 4 3
15 16 19 20 17 21 25 23 20 18 21 20 21 20 16 6 4 4 5 5 5 6 1 8 7 8 4 5 3 3 6 7 9 7 5 1 1 1 3 6 5 7 7 4 4 3 10
20 17 15 18 15 16 16 24 23 21 23 23 23 20 14 5 5 6 4 4 6 7 8 3 6 9 8 7 4 6 5 4 6 4 5 9 4 9 3 4 9 6 7 9 10 6 5
20 21 18 14 20 15 21 24 26 23 24 25 23 9 6 8 7 4 6 6 9 8 8 10 5 6 5 5 7 5 8 6 8 10 9 6 3 2 3 1 1 6 3 4 8 2 4
19 19 21 18 15 14 15 18 26 26 25 27 9 8 10 12 8 4 5 16 6 3 8 4 9 6 10 10 8 9 11 7 7 13 4 7 6 3 1 0 1 4 1 4 3 3 5
18 22 19 23 21 17 17 15 18 28 28 30 7 8 9 15 7 5 14 10 7 6 7 8 7 7 6 11 10 8 7 4 6 9 8 6 7 3 1 8 9 3 2 2 4 5 7
20 19 21 20 20 20 16 17 18 27 30 27 7 10 13 16 11 6 18 7 5 6 3 6 5 4 9 10 8 8 15 5 7 11 12 5 7 6 7 3 1 1 4 6 7 7 3
20 21 21 20 20 20 19 18 17 20 33 11 10 5 12 15 14 13 6 20 4 4 6 8 8 5 4 9 5 7 8 2 7 8 15 10 3 4 7 5 4 4 6 3 3 3 9
22 23 20 21 21 20 21 19 19 20 24 13 6 7 5 5 12 20 17 9 24 6 4 5 5 4 4 3 2 8 4 3 1 2 3 8 3 9 12 8 8 8 8 8 4 5 6
23 25 24 22 21 22 21 20 20 22 26 15 6 6 6 14 20 19 21 16 21 12 6 8 4 6 8 4 4 5 3 2 5 3 4 5 6 5 1 4 5 6 9 20 19 17 12
26 25 22 22 23 22 22 20 21 23 24 14 7 6 2 6 17 19 19 19 24 22 12 8 6 9 6 6 7 8 8 4 6 3 3 3 2 3 1 2 2 2 5 14 21 15 6
23 22 22 21 22 23 21 22 21 21 19 5 5 2 7 13 18 17 17 19 19 10 16 4 10 6 6 9 8 5 5 6 7 9 6 5 6 4 5 1 4 9 13 12 6 5 14
22 21 20 22 22 22 22 23 21 24 21 7 3 4 5 7 16 22 25 18 13 19 8 9 7 9 7 11 8 7 7 5 5 2 5 6 5 3 3 2 4 9 3 9 15 7 16
21 25 24 22 22 21 21 21 20 23 25 10 4 10 7 8 16 13 20 25 16 12 16 9 8 7 9 8 4 4 2 2 4 5 7 4 4 2 6 4 7 8 5 9 10 11 15
28 27 20 18 18 20 21 19 17 19 20 8 6 11 3 13 16 18 22 16 13 9 5 5 3 13 11 4 4 7 7 6 7 5 6 4 3 4 3 6 11 7 6 4 6 11 2
17 28 28 19 16 15 17 18 16 19 18 11 5 13 2 7 5 17 17 16 10 10 5 4 6 7 3 4 3 5 5 7 8 10 8 6 4 15 12 7 9 7 4 5 7 6 5
24 26 33 13 13 14 11 12 14 14 21 11 2 9 4 4 3 3 6 14 9 13 10 7 5 4 6 7 6 5 3 7 4 8 10 13 11 8 7 9 16 6 2 11 1 4 6
27 26 37 17 6 10 10 9 12 18 9 7 2 1 6 6 5 7 12 11 7 10 14 10 6 7 6 5 4 4 2 2 6 9 1 8 9 9 11 7 4 7 5 5 6 6 5
Wind_Direction
265 233 203 207 210 196 193 189 190 195 177 146 131 113 168 173 168 159 138 205 288 302 333 331 332 334 348 69 258 307 335 327 345 331 292 212 132 118 137 125 84 89 160 64 67 56 67
246 254 223 216 227 212 203 202 204 203 184 175 158 143 127 181 181 163 116 313 261 302 327 327 333 338 316 219 170 328 328 351 29 9 9 15 100 114 103 68 66 97 95 98 43 59 58
246 239 228 215 231 226 214 207 213 210 210 192 178 172 170 197 217 202 256 288 271 269 320 321 328 337 327 238 13 321 349 319 319 66 101 357 297 57 113 99 167 136 75 21 21 123 105
249 250 239 232 225 231 229 217 206 216 213 198 181 181 191 189 218 193 246 258 260 298 300 307 320 2 239 10 293 5 330 40 34 70 98 334 48 98 68 117 60 64 65 115 240 158 8
244 242 246 244 233 226 228 236 214 208 207 192 179 192 197 195 188 167 218 187 44 306 287 289 4 115 277 334 103 331 13 95 40 35 65 44 69 80 57 89 40 9 194 206 276 204 129
248 247 244 242 243 234 226 227 232 213 207 202 194 181 193 207 172 166 216 75 335 337 294 258 264 41 260 211 104 344 343 7 97 96 65 55 54 76 29 81 195 189 195 213 216 213 169
249 246 248 239 239 239 227 227 228 232 212 203 193 192 190 209 184 175 117 61 34 354 209 196 209 79 148 166 95 21 2 132 111 57 133 44 90 188 202 179 96 139 145 169 270 179 140
248 248 245 244 241 230 229 223 225 228 235 198 185 192 192 208 188 160 107 157 201 152 289 225 192 117 128 178 113 185 48 140 158 152 120 40 218 215 144 190 91 138 122 177 346 98 124
226 238 242 242 243 233 233 223 219 211 232 200 184 182 191 187 192 136 157 199 75 169 142 226 190 176 208 147 190 191 149 152 135 132 169 154 218 156 142 165 157 137 162 184 157 117 271
238 226 233 237 232 234 235 223 213 206 211 201 185 180 178 167 139 158 216 239 244 157 62 216 213 221 145 142 252 146 212 152 143 176 145 193 18 169 139 179 130 175 177 129 129 103 214
326 240 226 227 229 228 225 229 217 210 207 198 180 177 174 162 156 166 217 152 164 48 10 134 156 284 153 170 134 246 274 97 157 149 124 216 151 147 156 160 136 195 106 122 119 91 57
338 322 337 273 223 225 220 222 222 213 203 186 179 175 177 160 104 238 146 119 56 62 239 159 124 158 125 123 110 139 149 34 135 99 50 103 64 60 107 74 19 147 76 48 55 90 304
331 330 315 324 268 235 219 213 214 211 201 189 179 180 175 152 198 153 129 91 77 194 44 178 173 159 145 152 157 162 169 173 159 125 176 89 35 313 159 85 11 60 78 14 349 7 234
321 320 320 312 311 336 257 215 208 209 202 185 175 179 185 174 157 135 74 53 188 191 188 139 117 115 168 156 195 164 128 207 241 103 123 150 234 173 166 177 172 195 150 159 195 196 246
313 313 308 310 298 290 307 224 206 202 200 183 174 175 182 193 150 126 112 207 216 194 157 141 104 119 209 206 147 142 192 208 210 186 144 132 181 27 60 49 63 203 202 167 105 335 50
306 303 301 300 297 279 282 286 224 194 195 180 177 180 192 167 147 124 169 225 222 193 118 156 165 159 172 181 153 175 174 199 206 186 142 197 94 354 80 78 28 151 261 84 6 164 252
305 307 302 297 289 283 268 277 276 201 194 177 171 193 168 153 148 178 207 226 221 210 153 158 187 146 181 169 179 191 202 255 210 181 141 135 107 292 140 209 179 148 211 33 130 146 182
296 295 296 296 289 296 266 263 268 215 193 176 155 198 163 153 186 194 214 182 229 201 179 205 160 134 166 164 166 207 202 228 160 148 170 178 113 149 213 259 159 126 215 176 146 241 225
296 287 288 291 292 286 287 264 251 251 198 166 175 158 180 161 195 204 185 213 277 205 184 179 197 197 163 163 148 195 186 19 165 159 160 185 213 86 352 351 3 219 212 170 126 77 204
298 293 281 284 284 281 282 272 249 251 272 181 140 161 153 217 194 198 189 196 216 218 209 176 167 124 115 133 225 174 159 26 348 112 104 131 130 179 207 198 145 190 190 191 164 185 195
297 292 290 278 277 283 275 279 258 216 255 176 168 185 173 189 194 189 178 182 198 205 205 175 205 194 160 129 128 144 128 28 18 38 51 125 205 152 348 136 132 175 181 186 204 207 201
303 291 285 278 277 276 275 272 271 244 224 219 161 159 115 182 192 191 186 199 201 203 159 205 159 174 154 147 189 176 136 184 181 29 123 357 189 100 299 46 112 245 200 204 219 225 288
303 297 282 275 273 272 276 269 274 265 211 259 120 152 158 164 181 187 202 196 201 167 221 174 166 116 122 118 83 92 121 130 157 149 163 149 139 103 245 52 84 290 201 185 193 206 213
314 300 285 275 273 269 268 262 273 262 258 180 228 125 154 189 181 201 200 190 189 202 187 187 159 146 160 123 89 68 71 68 140 241 146 146 118 106 155 54 198 246 262 195 192 201 207
325 312 296 287 276 267 262 259 273 269 264 210 177 214 158 181 198 184 196 196 187 189 205 165 173 189 129 66 140 157 153 151 215 208 194 171 138 122 152 198 289 279 209 145 168 252 197
354 333 298 283 285 273 262 258 268 272 265 207 205 237 166 180 201 183 184 181 179 180 172 147 124 151 119 137 164 176 182 161 196 182 195 147 15 152 148 184 213 243 232 162 118 266 240
342 354 330 297 274 275 263 253 254 265 265 171 194 230 133 173 171 159 177 178 152 157 148 139 141 172 130 145 165 164 201 181 170 166 162 163 184 210 211 225 275 250 260 150 133 254 8
357 356 358 319 279 274 269 249 238 261 276 178 165 209 165 141 51 24 134 159 149 170 181 156 120 192 154 171 177 184 193 212 168 161 170 173 176 191 202 210 250 24 333 182 212 68 63
0 16 3 9 297 278 254 262 272 265 175 133 121 23 73 62 75 62 80 44 354 167 174 176 163 161 157 151 177 148 161 124 147 215 266 195 190 183 190 202 68 25 58 17 348 60 19